Location: Lavington
(51.2833°N, 1.9833°W)
Time: 18:25:28
(UTC+00:00)

STARLINK-1154 - Pass Details

Date: 01 June 2020
Orbit: 549 x 550 km, 53.0° (Epoch: 06 July)

Event Time Altitude Azimuth Distance (km) Brightness Sun altitude
Rises 23:16:16 0° 288° (WNW) 2,728 7.6 -15.7°
Reaches altitude 10° 23:18:30 10° 287° (WNW) 1,834 6.6 -15.8°
Maximum altitude 23:22:40 78° 202° (SSW) 569 3.5 -15.9°
Enters shadow 23:26:00 16° 116° (ESE) 1,509 5.5 -16.0°
